This demonstration page uses our WeatherBlox Daily Observations layout. Learn more.

Left ArrowRight Arrow

Hourly Observations for September 27, 2021

Temp ( °F °C ) Dew Point ( °F °C ) Humidity (%) Winds ( mph kmh ) Pressure ( in mb ) Visibility ( mi km ) Precip ( " mm )
12:53 am 00:53 Clear 56 13.3 32 undefined 40 40 SSW 8 13 29.69 1005 10 16 N/A
1:53 am 01:53 Clear 52 11.1 31 -0.6 45 45 SSW 5 7 29.70 1006 10 16 N/A
2:53 am 02:53 Clear 51 10.6 31 -0.6 46 46 W 3 6 29.70 1006 10 16 N/A
3:53 am 03:53 Clear 49 9.4 31 -0.6 50 50 W 3 6 29.70 1006 10 16 N/A
4:53 am 04:53 Clear 49 9.4 31 -0.6 50 50 SSW 10 17 29.71 1006 10 16 N/A
5:53 am 05:53 Clear 48 8.9 31 -0.6 52 52 W 6 9 29.71 1006 10 16 N/A
6:53 am 06:53 Clear 47 8.3 31 -0.6 54 54 SW 6 9 29.72 1007 10 16 N/A
7:53 am 07:53 Sunny 50 10 32 undefined 50 50 WSW 3 6 29.74 1007 10 16 N/A
8:53 am 08:53 Sunny 60 15.6 32 undefined 35 35 SW 8 13 29.74 1007 10 16 N/A
9:53 am 09:53 Sunny 69 20.6 34 1.1 27 27 W 9 15 29.73 1007 10 16 N/A
10:53 am 10:53 Sunny 74 23.3 33 0.6 22 22 SW 14 22 29.73 1007 10 16 N/A
11:53 am 11:53 Sunny 79 26.1 34 1.1 20 20 WSW 15 24 29.71 1006 10 16 N/A
12:53 pm 12:53 Sunny 84 28.9 33 0.6 16 16 WSW 22 35 29.69 1006 10 16 N/A
1:53 pm 13:53 Sunny 87 30.6 31 -0.6 13 13 W 18 30 29.67 1005 10 16 N/A
2:53 pm 14:53 Sunny 88 31.1 30 -1.1 12 12 W 14 22 29.65 1004 10 16 N/A
3:53 pm 15:53 Sunny 87 30.6 28 -2.2 12 12 WSW 18 30 29.65 1004 10 16 N/A
4:53 pm 16:53 Sunny 87 30.6 28 -2.2 12 12 W 10 17 29.65 1004 10 16 N/A
5:53 pm 17:53 Sunny 83 28.3 27 -2.8 13 13 W 7 11 29.64 1004 10 16 N/A
6:53 pm 18:53 Sunny 73 22.8 28 -2.2 19 19 SSE 3 6 29.64 1004 10 16 N/A
7:53 pm 19:53 Clear 61 16.1 26 -3.3 26 26 SSE 6 9 29.65 1004 10 16 N/A
8:53 pm 20:53 Clear 61 16.1 27 -2.8 27 27 E 6 9 29.62 1003 10 16 N/A
9:53 pm 21:53 Clear 59 15 27 -2.8 29 29 N N/A 29.60 1003 10 16 N/A
10:53 pm 22:53 Clear 57 13.9 27 -2.8 32 32 N 3 6 29.58 1002 10 16 N/A
11:53 pm 23:53 Clear 58 14.4 27 -2.8 31 31 ENE 8 13 29.54 1000 10 16 N/A

Powered by AerisWeather